This is the latest recevied weather packets stored in our database for station/object VK4HIT-13. If no packets are shown the sender has not sent any weather packets the latest 10 day(s).
| Time | Temp. | Humidity | Pressure | Rain* | Wind** | Luminosity | Snow |
|---|---|---|---|---|---|---|---|
| 1778125167 | 24.44° C | 41% | 1014.4 hPa | 0 mm | - | - | - |
| 1778124867 | 24.44° C | 40% | 1014.4 hPa | 0 mm | - | - | - |
| 1778124567 | 24.44° C | 42% | 1014.5 hPa | 0 mm | - | - | - |
| 1778124267 | 24.44° C | 42% | 1014.3 hPa | 0 mm | - | - | - |
| 1778123967 | 24.44° C | 41% | 1014.4 hPa | 0 mm | - | - | - |
| 1778123667 | 24.44° C | 42% | 1014.6 hPa | 0 mm | - | - | - |
| 1778123367 | 24.44° C | 43% | 1014.7 hPa | 0 mm | - | - | - |
| 1778123067 | 24.44° C | 43% | 1014.7 hPa | 0 mm | - | - | - |
| 1778122767 | 24.44° C | 44% | 1014.8 hPa | 0 mm | - | - | - |
| 1778122467 | 23.89° C | 44% | 1014.8 hPa | 0 mm | - | - | - |
| 1778122167 | 23.89° C | 43% | 1014.9 hPa | 0 mm | - | - | - |
| 1778121867 | 23.89° C | 44% | 1015 hPa | 0 mm | - | - | - |
| 1778121567 | 23.89° C | 44% | 1014.9 hPa | 0 mm | - | - | - |
| 1778121267 | 23.89° C | 45% | 1014.8 hPa | 0 mm | - | - | - |
| 1778120967 | 23.89° C | 46% | 1014.9 hPa | 0 mm | - | - | - |
| 1778120667 | 23.89° C | 45% | 1015 hPa | 0 mm | - | - | - |
| 1778120367 | 23.89° C | 46% | 1015.1 hPa | 0 mm | - | - | - |
| 1778120067 | 23.89° C | 47% | 1015.3 hPa | 0 mm | - | - | - |
| 1778119767 | 24.44° C | 46% | 1015.4 hPa | 0 mm | - | - | - |
| 1778119467 | 23.89° C | 50% | 1015.4 hPa | 0 mm | - | - | - |
| 1778119167 | 23.33° C | 50% | 1015.5 hPa | 0 mm | - | - | - |
| 1778118867 | 23.33° C | 50% | 1015.6 hPa | 0 mm | - | - | - |
| 1778118567 | 23.33° C | 52% | 1015.7 hPa | 0 mm | - | - | - |
| 1778118267 | 23.89° C | 50% | 1015.8 hPa | 0 mm | - | - | - |
| 1778117967 | 23.89° C | 51% | 1015.9 hPa | 0 mm | - | - | - |
* Rain latest hour (hover to see other rain measurements)
** Current wind speed in m/s (hover to see current wind gust speed)